Veribest, TX

6:58 AM CDT on August 27, 2016 (GMT -0500)
San Angelo Regional-Mathis

Weather History for KSJT - April, 2013

Change the Weather History Date:

Wednesday, April 10, 2013

  Actual Average Record
Temperature  
Mean Temperature 50 °F 64 °F  
Max Temperature 62 °F 79 °F 99 °F (1963)
Min Temperature 38 °F 50 °F 27 °F (1913)
Degree Days  
Heating Degree Days 15 4  
Month to date heating degree days 52 44  
Since 1 July heating degree days 1841 2262  
Cooling Degree Days 0 3  
Month to date cooling degree days 45 25  
Year to date cooling degree days 120 63  
Moisture  
Dew Point 35 °F    
Average Humidity 62    
Maximum Humidity 92    
Minimum Humidity 32    
Precipitation  
Precipitation 0.16 in 0.04 in 0.80 in (2001)
Month to date precipitation 0.71 0.43  
Year to date precipitation 2.54 4.21  
Snow  
Snow 0.00 in 0.00 in 0.00 in (2002)
Month to date snowfall 0.0 0.0  
Since 1 July snowfall 2.8 2.2  
Snow Depth 0.00 in    
Sea Level Pressure  
Sea Level Pressure 29.92 in    
Wind  
Wind Speed 13 mph (North)    
Max Wind Speed 25 mph    
Max Gust Speed 30 mph    
Visibility 9 miles    
Events Rain , Thunderstorm    
T = Trace of Precipitation, MM = Missing Value Source: NWS Daily Summary

Daily Weather History Graph

Daily Weather History Graph

Search for Another Location

Airport or City:

Trip Planner

Search our weather history database for the weather conditions in past years. The results will help you decide how hot, cold, wet, or windy it might be!

Date:

Astronomy

Apr. 10, 2013 Rise Set
Actual Time 7:19 AM CDT 8:07 PM CDT
Civil Twilight 6:54 AM CDT 8:32 PM CDT
Nautical Twilight 6:25 AM CDT 9:01 PM CDT
Astronomical Twilight 5:55 AM CDT 9:31 PM CDT
Moon 7:18 AM CDT (4/10) 8:40 PM CDT (4/10)
Length of Visible Light 13h 37m
Length of Day
12h 48m
New Moon, 0% of the Moon is Illuminated
Apr 10
New Moon
Apr 18
First Quarter
Apr 25
Full
May 2
Last Quarter
May 9
New

Hourly Weather History & Observations

Time (CDT) Temp. Windchill Dew Point Humidity Pressure Visibility Wind Dir Wind Speed Gust Speed Precip Events Conditions
12:26 AM 51.8 °F - 35.6 °F 54% 29.80 in 10.0 mi North 13.8 mph - N/A   Overcast
12:51 AM 51.1 °F - 36.0 °F 56% 29.75 in 10.0 mi NNE 18.4 mph - N/A   Overcast
1:51 AM 48.9 °F - 36.0 °F 61% 29.79 in 10.0 mi North 15.0 mph - N/A   Overcast
2:51 AM 43.0 °F 35.1 °F 39.9 °F 89% 29.83 in 9.0 mi North 17.3 mph 25.3 mph 0.00 in Rain Light Rain
3:03 AM 42.8 °F 34.5 °F 39.2 °F 87% 29.89 in 10.0 mi North 18.4 mph - 0.00 in Rain , Thunderstorm Light Rain
3:18 AM 42.8 °F 34.5 °F 37.4 °F 81% 29.91 in 7.0 mi North 18.4 mph 27.6 mph 0.01 in Rain Light Rain
3:51 AM 41.0 °F 33.1 °F 37.9 °F 89% 29.85 in 7.0 mi North 15.0 mph - 0.01 in Rain Light Rain
4:19 AM 41.0 °F 33.1 °F 37.4 °F 87% 29.91 in 4.0 mi NW 15.0 mph - 0.01 in Rain Rain
4:29 AM 39.2 °F 29.3 °F 35.6 °F 87% 29.93 in 3.0 mi North 20.7 mph 27.6 mph 0.11 in Rain Rain
4:36 AM 39.2 °F 29.8 °F 35.6 °F 87% 29.92 in 5.0 mi North 18.4 mph - 0.13 in Rain , Thunderstorm Rain
4:43 AM 39.2 °F 29.8 °F 35.6 °F 87% 29.93 in 7.0 mi NNW 18.4 mph - 0.13 in Rain , Thunderstorm Light Rain
4:47 AM 39.2 °F 29.8 °F 35.6 °F 87% 29.93 in 7.0 mi North 18.4 mph - 0.14 in Rain , Thunderstorm Light Rain
4:51 AM 39.0 °F 29.6 °F 37.0 °F 93% 29.89 in 8.0 mi North 18.4 mph - 0.14 in Rain Light Rain
5:13 AM 39.2 °F 29.8 °F 37.4 °F 93% 29.93 in 6.0 mi NNW 18.4 mph - 0.01 in Rain Light Rain
5:23 AM 39.2 °F 28.7 °F 35.6 °F 87% 29.94 in 6.0 mi NNW 23.0 mph 27.6 mph 0.01 in Rain Light Rain
5:36 AM 39.2 °F 29.8 °F 35.6 °F 87% 29.94 in 10.0 mi North 18.4 mph - 0.01 in Rain Light Rain
5:48 AM 39.2 °F 29.3 °F 33.8 °F 81% 29.94 in 10.0 mi North 20.7 mph 28.8 mph 0.01 in Rain Light Rain
5:51 AM 39.0 °F 29.3 °F 34.0 °F 82% 29.90 in 10.0 mi North 19.6 mph 28.8 mph 0.01 in Rain Light Rain
6:51 AM 39.0 °F 29.0 °F 33.1 °F 79% 29.93 in 10.0 mi North 20.7 mph 25.3 mph 0.00 in   Overcast
7:51 AM 37.9 °F 28.9 °F 30.9 °F 76% 29.96 in 10.0 mi NNW 16.1 mph - N/A   Overcast
8:51 AM 39.0 °F 30.3 °F 30.0 °F 70% 29.98 in 10.0 mi NNW 16.1 mph 23.0 mph N/A   Overcast
9:35 AM 41.0 °F 33.9 °F 30.2 °F 65% 30.02 in 10.0 mi NNW 12.7 mph - N/A   Scattered Clouds
9:51 AM 41.0 °F 33.1 °F 30.9 °F 67% 30.01 in 10.0 mi NW 15.0 mph - N/A   Clear
10:51 AM 45.0 °F 39.7 °F 33.1 °F 63% 30.01 in 10.0 mi NNW 10.4 mph 18.4 mph N/A   Clear
11:51 AM 48.9 °F - 35.1 °F 59% 30.01 in 10.0 mi NNE 9.2 mph - N/A   Clear
12:51 PM 52.0 °F - 36.0 °F 54% 29.99 in 10.0 mi North 10.4 mph 19.6 mph N/A   Clear
1:51 PM 54.0 °F - 35.1 °F 49% 29.97 in 10.0 mi North 9.2 mph 18.4 mph N/A   Clear
2:51 PM 57.9 °F - 35.1 °F 42% 29.94 in 10.0 mi North 12.7 mph 19.6 mph N/A   Clear
3:51 PM 59.0 °F - 35.1 °F 41% 29.91 in 10.0 mi NNE 10.4 mph - N/A   Clear
4:51 PM 62.1 °F - 34.0 °F 35% 29.90 in 10.0 mi North 13.8 mph 19.6 mph N/A   Clear
5:51 PM 62.1 °F - 32.0 °F 32% 29.89 in 10.0 mi North 11.5 mph - N/A   Clear
6:51 PM 60.1 °F - 32.0 °F 35% 29.90 in 10.0 mi NNE 10.4 mph - N/A   Clear
7:51 PM 57.9 °F - 35.1 °F 42% 29.91 in 10.0 mi NNE 10.4 mph - N/A   Clear
8:51 PM 54.0 °F - 37.9 °F 55% 29.94 in 10.0 mi NE 9.2 mph - N/A   Clear
10:51 PM 50.0 °F - 36.0 °F 59% 29.97 in 10.0 mi ENE 11.5 mph - N/A   Clear
11:51 PM 48.9 °F - 35.1 °F 59% 29.97 in 10.0 mi NNE 11.5 mph - N/A   Clear